Regional Weather Roundup
Issued by NWS

Home | Current Version | Previous Version | Text Only | Print | Product List | Glossary Off
Versions: 1 2 3 4 5 6 7 8 9 10 11 12 13 14 15 16 17 18 19 20 21 22 23 24 25 26 27 28 29 30 31 32 33 34 35 36 37 38 39 40 41 42 43 44 45 46 47 48 49 50

000
ASUS43 KFSD 120310
RWRSD

WEATHER ROUNDUP FOR SOUTH DAKOTA
NATIONAL WEATHER SERVICE SIOUX FALLS SD
900 PM CST THU FEB 11 2016

NOTE: "FAIR" INDICATES FEW OR NO CLOUDS BELOW 12,000 FEET WITH NO
SIGNIFICANT WEATHER AND/OR OBSTRUCTIONS TO VISIBILITY.


SDZ001>005-009-010-012>017-120400-
NORTHWEST AND NORTH CENTRAL SOUTH DAKOTA

CITY           SKY/WX    TMP DP  RH WIND       PRES   REMARKS
BUFFALO          N/A     31  26  82 N10       30.14S WCI  22
FAITH            N/A     26  22  84 N12       30.21R WCI  16
MOBRIDGE       CLOUDY    25  20  81 N12       30.23R WCI  14
$$

SDZ012>016-024>037-041>051-057-063-072>074-120400-
SOUTHWEST AND SOUTH CENTRAL SOUTH DAKOTA

CITY           SKY/WX    TMP DP  RH WIND       PRES   REMARKS
RAPID CTY ARPT CLOUDY    33  29  85 N14       30.20R WCI  23
PIERRE         CLOUDY    27  24  89 NW3       30.22R
CUSTER         CLOUDY    39  22  50 N12G20    30.15R
ELLSWORTH AFB  MOCLDY    33  30  90 N13       30.19R WCI  24
PHILIP         CLOUDY    31  28  89 CALM      30.23R
PINE RIDGE     CLOUDY    38  30  73 N8        30.18R
SPEARFISH      CLOUDY    37  32  81 NW8       30.21R
WINNER         CLOUDY    28  24  85 NE8       30.21R WCI  20
$$

SDZ004>011-016>023-039-040-120400-
NORTHEAST SOUTH DAKOTA

CITY           SKY/WX    TMP DP  RH WIND       PRES   REMARKS
ABERDEEN       CLOUDY    18  11  74 N7        30.27R WCI   9
WATERTOWN      CLOUDY    19  14  81 N10       30.19R WCI   7
BROOKINGS      LGT SNOW  11   8  88 CALM      30.20R FOG
SISSETON         N/A     14  11  87 N8        30.25S WCI   3
$$

SDZ017-020-022-023-036>040-048>070-120400-
SOUTHEAST SOUTH DAKOTA

CITY           SKY/WX    TMP DP  RH WIND       PRES   REMARKS
SIOUX FALLS    LGT SNOW  10   8  92 CALM      30.21R
HURON          CLOUDY    21  19  92 W3        30.23S
CHAMBERLAIN    CLOUDY    24  22  93 CALM      30.22S
MITCHELL       CLOUDY    18  16  92 CALM      30.24S
YANKTON        CLOUDY    16  12  86 NE3       30.23R
$$

ABBREVIATIONS USED IN REMARKS
   TC - TEMPERATURE IN CELSIUS
  WCI - WIND CHILL INDEX
   HX - HEAT INDEX
  VSB - VISIBILITY




USA.gov is the U.S. government's official web portal to all federal, state and local government web resources and services.